Вернуться в каталог

STARLINK-34586

АктивенСвязьSSO
NORAD 64950·PAYLOAD·🇺🇸 United States

Запущен Jul 26, 2025 с Vandenberg Space Force Base

Loading…

Ближайшие Пролёты (ближайшие 24 часа)

TLE

СвежийSource: CelesTrak SupGP

Эпоха: Sep 15, 2026, 03:05 UTC

1 64950C 25158U   26258.12895833  .00001165  00000+0  36158-4 0  2584
2 64950  97.2849 116.4529 0001575  97.5885  97.7823 15.33452511    10

Отслеживайте STARLINK-34586 в реальном времени с AllMySat

Download on the App Store